Colwell, IA

8:25 AM CST on December 06, 2016 (GMT -0600)
Charles City Municipal

Weather History for KCCY - November, 2010

Change the Weather History Date:

Saturday, November 13, 2010

  Actual Average Record
Temperature  
Mean Temperature 37 °F -  
Max Temperature 42 °F 42 °F 75 °F (1999)
Min Temperature 32 °F 26 °F -2 °F (1986)
Degree Days  
Heating Degree Days 28    
Moisture  
Dew Point 37 °F    
Average Humidity 96    
Maximum Humidity 100    
Minimum Humidity 93    
Precipitation  
Precipitation 0.38 in - - ()
Sea Level Pressure  
Sea Level Pressure 29.78 in    
Wind  
Wind Speed 19 mph (East)    
Max Wind Speed 29 mph    
Max Gust Speed 36 mph    
Visibility 5 miles    
Events Rain    
Averages and records for this station are not official NWS values.
T = Trace of Precipitation, MM = Missing Value Source: NWS Daily Summary

Daily Weather History Graph

Daily Weather History Graph

Search for Another Location

Airport or City:

Trip Planner

Search our weather history database for the weather conditions in past years. The results will help you decide how hot, cold, wet, or windy it might be!

Date:

Astronomy

Nov. 13, 2010 Rise Set
Actual Time 7:00 AM CST 4:48 PM CST
Civil Twilight 6:30 AM CST 5:18 PM CST
Nautical Twilight 5:55 AM CST 5:53 PM CST
Astronomical Twilight 5:22 AM CST 6:26 PM CST
Moon 12:53 PM CST (11/13) No Moon Set
Length of Visible Light 10h 48m
Length of Day
9h 48m
Waxing Crescent, 51% of the Moon is Illuminated
Nov 13
Waxing Crescent
Nov 21
Full
Nov 28
Last Quarter
Dec 5
New
Dec 13
First Quarter

Hourly Weather History & Observations

Time (CST) Temp. Windchill Dew Point Humidity Pressure Visibility Wind Dir Wind Speed Gust Speed Precip Events Conditions
12:15 AM 35.6 °F 24.5 °F 35.6 °F 100% 30.05 in 10.0 mi ENE 20.7 mph 28.8 mph 0.04 in Rain Rain
12:35 AM 37.4 °F 26.9 °F 35.6 °F 93% 30.02 in 7.0 mi ENE 20.7 mph 28.8 mph 0.05 in Rain Light Rain
12:55 AM 37.4 °F 26.6 °F 35.6 °F 93% 30.00 in 5.0 mi ENE 21.9 mph 28.8 mph 0.07 in Rain Light Rain
1:15 AM 37.4 °F 25.9 °F 35.6 °F 93% 29.98 in 7.0 mi ENE 25.3 mph 31.1 mph 0.01 in Rain Light Rain
1:35 AM 37.4 °F 25.2 °F 35.6 °F 93% 29.96 in 10.0 mi East 28.8 mph 34.5 mph 0.02 in Rain Rain
1:55 AM 37.4 °F 25.6 °F 35.6 °F 93% 29.94 in 10.0 mi East 26.5 mph 32.2 mph 0.04 in Rain Light Rain
2:15 AM 37.4 °F 26.1 °F 35.6 °F 93% 29.93 in 10.0 mi ENE 24.2 mph 34.5 mph 0.02 in Rain Light Rain
2:35 AM 37.4 °F 25.6 °F 35.6 °F 93% 29.91 in 10.0 mi ENE 26.5 mph 32.2 mph 0.03 in Rain Light Rain
2:55 AM 37.4 °F 25.9 °F 37.4 °F 100% 29.90 in 10.0 mi East 25.3 mph 32.2 mph 0.04 in Rain Light Rain
3:15 AM 37.4 °F 25.6 °F 37.4 °F 100% 29.88 in 10.0 mi East 26.5 mph 33.4 mph N/A Rain Light Rain
3:35 AM 37.4 °F 25.4 °F 37.4 °F 100% 29.86 in 7.0 mi ENE 27.6 mph 33.4 mph N/A Rain Rain
3:55 AM 37.4 °F 26.1 °F 37.4 °F 100% 29.85 in 3.5 mi East 24.2 mph 33.4 mph 0.03 in Rain Rain
4:15 AM 39.2 °F 29.0 °F 37.4 °F 93% 29.83 in 5.0 mi East 21.9 mph 29.9 mph 0.02 in Rain Light Rain
4:35 AM 39.2 °F 28.3 °F 37.4 °F 93% 29.82 in 4.0 mi East 25.3 mph 31.1 mph 0.05 in Rain Light Rain
4:55 AM 39.2 °F 29.0 °F 37.4 °F 93% 29.81 in 5.0 mi East 21.9 mph 33.4 mph 0.06 in Rain Light Rain
5:15 AM 39.2 °F 27.6 °F 37.4 °F 93% 29.80 in 5.0 mi East 28.8 mph 35.7 mph N/A Rain Light Rain
5:35 AM 39.2 °F 28.7 °F 37.4 °F 93% 29.80 in 3.5 mi East 23.0 mph 31.1 mph N/A Rain Light Rain
5:55 AM 41.0 °F 31.4 °F 39.2 °F 93% 29.79 in 3.5 mi East 21.9 mph 28.8 mph 0.01 in Rain Rain
6:15 AM 41.0 °F 31.1 °F 39.2 °F 93% 29.77 in 3.5 mi East 23.0 mph 28.8 mph N/A Rain Light Rain
6:35 AM 41.0 °F 30.9 °F 39.2 °F 93% 29.76 in 4.0 mi East 24.2 mph 32.2 mph N/A   Overcast
6:55 AM 41.0 °F 31.9 °F 39.2 °F 93% 29.76 in 3.0 mi East 19.6 mph 26.5 mph N/A Rain Light Rain
7:15 AM 41.0 °F 33.1 °F 39.2 °F 93% 29.76 in 4.0 mi East 15.0 mph 26.5 mph N/A Rain Light Rain
7:35 AM 41.0 °F 31.6 °F 41.0 °F 100% 29.75 in 2.5 mi East 20.7 mph 25.3 mph 0.01 in Rain Light Rain
7:55 AM 41.0 °F 32.5 °F 41.0 °F 100% 29.76 in 2.5 mi East 17.3 mph - 0.03 in Rain Light Rain
8:15 AM 41.0 °F 32.5 °F 41.0 °F 100% 29.76 in 3.0 mi East 17.3 mph - 0.01 in Rain Rain
8:35 AM 41.0 °F 33.5 °F 41.0 °F 100% 29.74 in 3.0 mi ENE 13.8 mph 19.6 mph 0.02 in   Drizzle
8:55 AM 41.0 °F 33.9 °F 41.0 °F 100% 29.74 in 3.0 mi East 12.7 mph 18.4 mph 0.03 in   Light Drizzle
9:15 AM 42.8 °F 34.8 °F 41.0 °F 93% 29.73 in 3.0 mi East 17.3 mph 26.5 mph N/A Rain Rain
9:35 AM 41.0 °F 34.3 °F 41.0 °F 100% 29.73 in 4.0 mi SE 11.5 mph - 0.01 in Rain Rain
9:55 AM 41.0 °F 35.2 °F 39.2 °F 93% 29.74 in 4.0 mi SSE 9.2 mph - 0.02 in   Drizzle
10:15 AM 39.2 °F 33.6 °F 37.4 °F 93% 29.74 in 3.0 mi SSE 8.1 mph - 0.01 in   Drizzle
10:35 AM 39.2 °F 33.6 °F 37.4 °F 93% 29.73 in 3.0 mi ESE 8.1 mph - 0.02 in   Light Drizzle
10:55 AM 39.2 °F 34.2 °F 37.4 °F 93% 29.73 in 3.0 mi SSE 6.9 mph - 0.02 in   Light Drizzle
11:15 AM 39.2 °F 32.5 °F 37.4 °F 93% 29.73 in 3.5 mi SE 10.4 mph - N/A Rain Rain
11:35 AM 37.4 °F 31.4 °F 37.4 °F 100% 29.72 in 2.5 mi SSE 8.1 mph - 0.01 in   Light Drizzle
11:55 AM 37.4 °F 32.8 °F 37.4 °F 100% 29.71 in 2.5 mi SSE 5.8 mph - 0.01 in   Overcast
12:15 PM 37.4 °F 32.8 °F 37.4 °F 100% 29.70 in 3.5 mi SE 5.8 mph - 0.01 in   Overcast
12:35 PM 37.4 °F 33.8 °F 37.4 °F 100% 29.70 in 3.5 mi SE 4.6 mph - 0.01 in   Overcast
12:55 PM 37.4 °F 33.8 °F 37.4 °F 100% 29.69 in 2.5 mi ESE 4.6 mph - 0.01 in   Overcast
1:15 PM 39.2 °F 37.0 °F 37.4 °F 93% 29.69 in 7.0 mi ESE 3.5 mph - N/A   Overcast
1:35 PM 39.2 °F - 37.4 °F 93% 29.69 in 10.0 mi Calm Calm - N/A Rain Light Rain
1:55 PM 39.2 °F - 37.4 °F 93% 29.68 in 4.0 mi Calm Calm - N/A   Overcast
2:15 PM 39.2 °F - 37.4 °F 93% 29.68 in 2.5 mi Calm Calm - N/A   Overcast
2:35 PM 39.2 °F - 37.4 °F 93% 29.69 in 4.0 mi Calm Calm - N/A   Overcast
2:55 PM 37.4 °F 28.2 °F 35.6 °F 93% 29.69 in 2.5 mi WNW 16.1 mph 19.6 mph 0.01 in   Light Drizzle
3:15 PM 35.6 °F 25.9 °F 35.6 °F 100% 29.70 in 2.0 mi NW 16.1 mph 19.6 mph N/A   Overcast
3:35 PM 35.6 °F 25.5 °F 35.6 °F 100% 29.71 in 2.5 mi WNW 17.3 mph 23.0 mph N/A   Overcast
3:55 PM 35.6 °F 26.2 °F 33.8 °F 93% 29.71 in 3.5 mi NW 15.0 mph 18.4 mph N/A   Light Drizzle
4:15 PM 33.8 °F 23.2 °F 33.8 °F 100% 29.72 in 5.0 mi NW 17.3 mph 20.7 mph N/A   Overcast
4:35 PM 33.8 °F 23.5 °F 32.0 °F 93% 29.72 in 10.0 mi WNW 16.1 mph 20.7 mph N/A   Overcast
4:55 PM 33.8 °F 23.9 °F 32.0 °F 93% 29.73 in 7.0 mi WNW 15.0 mph 24.2 mph N/A Rain Light Rain
5:15 PM 33.8 °F 23.5 °F 32.0 °F 93% 29.74 in 5.0 mi WNW 16.1 mph - N/A Rain Light Rain
5:35 PM 33.8 °F 23.5 °F 32.0 °F 93% 29.75 in 5.0 mi WNW 16.1 mph 23.0 mph N/A   Light Drizzle
5:55 PM 32.0 °F 20.5 °F 32.0 °F 100% 29.75 in 7.0 mi WNW 18.4 mph 23.0 mph N/A   Overcast
6:15 PM 32.0 °F 21.6 °F 32.0 °F 100% 29.76 in 10.0 mi WNW 15.0 mph 24.2 mph N/A   Overcast
6:35 PM 32.0 °F 21.6 °F 32.0 °F 100% 29.76 in 10.0 mi WNW 15.0 mph - N/A   Overcast
6:55 PM 32.0 °F 21.6 °F 32.0 °F 100% 29.77 in 10.0 mi WNW 15.0 mph - N/A   Overcast
7:15 PM 32.0 °F 21.2 °F 32.0 °F 100% 29.77 in 10.0 mi WNW 16.1 mph - N/A   Overcast
7:35 PM 32.0 °F 21.2 °F 32.0 °F 100% 29.78 in 7.0 mi WNW 16.1 mph - N/A   Overcast
7:55 PM 32.0 °F 21.6 °F 32.0 °F 100% 29.78 in 4.0 mi WNW 15.0 mph - N/A Rain Light Rain
8:15 PM 32.0 °F 21.2 °F 32.0 °F 100% 29.78 in 7.0 mi WNW 16.1 mph 21.9 mph N/A Rain Light Rain
8:35 PM 32.0 °F 21.2 °F 32.0 °F 100% 29.78 in 4.0 mi WNW 16.1 mph 20.7 mph N/A Rain Rain
8:55 PM 32.0 °F 20.5 °F 32.0 °F 100% 29.79 in 10.0 mi WNW 18.4 mph 23.0 mph N/A   Light Drizzle
9:15 PM 32.0 °F 21.2 °F 32.0 °F 100% 29.80 in 10.0 mi West 16.1 mph 23.0 mph N/A Rain Light Rain
9:35 PM 32.0 °F 20.8 °F 32.0 °F 100% 29.80 in 10.0 mi West 17.3 mph 21.9 mph N/A   Light Drizzle
10:15 PM 32.0 °F 20.5 °F 32.0 °F 100% 29.81 in 10.0 mi West 18.4 mph 23.0 mph N/A   Overcast
10:35 PM 32.0 °F 20.1 °F 32.0 °F 100% 29.80 in 10.0 mi WNW 19.6 mph 24.2 mph N/A Rain Light Rain
10:55 PM 32.0 °F 21.2 °F 32.0 °F 100% 29.81 in 10.0 mi WNW 16.1 mph 25.3 mph N/A Rain Light Rain
11:15 PM 32.0 °F 21.2 °F 32.0 °F 100% 29.81 in 10.0 mi West 16.1 mph 27.6 mph N/A Rain Light Rain
11:35 PM 32.0 °F 20.1 °F 32.0 °F 100% 29.81 in 10.0 mi West 19.6 mph - N/A   Light Drizzle
11:55 PM 32.0 °F 20.1 °F 32.0 °F 100% 29.82 in 10.0 mi WNW 19.6 mph - N/A   Light Drizzle